CZ-6 R/B, 49061

Orbit data source: Space-Track

CZ-6 R/B, 49061 is space debris in LEO originally from a launch on Wed, 04 Aug 2021 UTC launched from the Taiyaun Space Center, China (TSC). Debris objects in space refer to the collection of defunct objects orbiting the Earth. Examples of debris include non-operational satellites, rocket bodies, and fragments generated from explosions, collisions, or faulty payload assembly.

Loading next visibility...
Identifier
49061, 2021-070C
Orbit
LEO
Country
Flag of CNCN / PRC
Related business
Manufacturer
SAST
Mission
Spacecraft
Bus & Motor
CZ-6 STAGE 3, YF-85 X 4
Mass
~1,000 kg wet, ~1,000 kg dry
Launch date (UTC)
2021-08-04 (5 years ago)
Launch vehicle
Unknown
Launch site
Taiyaun Space Center, China (TSC)
Object type
Payload
Rocket body
Debris
Shape & HBR
Cyl, 2.0 m
Radar Cross Section
9.057 m², Large (>1 m²)

Expand to show TLE details & history
Last TLE update: 2 days ago

TLE from 2 days ago
0 CZ-6 R/B
1 49061U 21070C   26171.38475789  .00000357  00000-0  66253-4 0  9999
2 49061  89.0510 210.2238 0213663 127.0489 235.0471 14.48650674257567
Epoch: 2026-06-20T09:14Z
TLE epoch observation values (Epoch: 2026-06-20T09:14:03.081Z)
Latitude
-0.00008°
Longitude
163.11081°
Altitude
822.327 km
Speed
7.395 km/s
True Right ascension
14h 00m 53s
True Declination
0° 00' 00"
Sunlit
Object was in full shadow at epoch
Visualization orbit readout
Latitude
Unknown
Longitude
Unknown
Altitude
Unknown
Speed
Unknown
Apparent Right ascension
Unknown
Apparent Declination
Unknown
Sunlit
N/A
Visualization observer readout
Local Sidereal Time
21:32:07
Azimuth
Unknown
Elevation
Unknown
Doppler factor
Unknown
Orbital elements
Apogee altitude
878.777 km
Perigee altitude
575.157 km
Semi-major axis
7,105.104 km
Eccentricity
0.02137
Inclination
89.051°
RAAN
210.2238°
Arg. of periapsis
127.0489°
True anomaly
233.07099°
Mean anomaly
235.0471°
Eccentric anomaly
234.056°
Mean motion
3.62399 °/min
Orbital period
99.34 mins
BSTAR
0.000066253
Loading maneuver chart data...
Computing Atmospheric mass density...
Loading historical data...
Loading historical data...
Loading historical data...
Loading historical data...
Loading historical data...
Loading historical data...
Loading historical data...
Other satellites on launch #70 in the year 2021 (2021-08-04 UTC)

Documentation

Showing up to 5 results
|